Regional Weather Roundup
Issued by NWS Newport/Morehead, NC

Current Version | Previous Version | Text Only | Print | Product List | Glossary On
Versions: 1 2 3 4 5 6 7 8 9 10 11 12 13 14 15 16 17 18 19 20 21 22 23 24 25 26 27 28 29 30 31 32 33 34 35 36 37 38 39 40 41 42 43 44 45 46 47 48 49 50
249 ASUS42 KMHX 202313 RWRMHX WEATHER ROUNDUP FOR EASTERN NORTH CAROLINA NATIONAL WEATHER SERVICE NEWPORT/MOREHEAD CITY NC 600 PM EST MON FEB 20 2017 NOTE: "FAIR" INDICATES FEW OR NO CLOUDS BELOW 12,000 FEET WITH NO SIGNIFICANT WEATHER AND/OR OBSTRUCTIONS TO VISIBILITY NCZ015>017-031-032-045>047-102-103-210000- NORTH COAST CITY SKY/WX TMP DP RH WIND PRES REMARKS EDENTON PTCLDY 55 41 58 E5 30.22R ELIZABETH CITY CLEAR 51 39 63 NE7 30.22R KITTY HAWK NOT AVBL MANTEO CLEAR 49 39 69 NE5 30.23R $$ NCZ045>047-081-094-103-104-210000- CENTRAL COAST CITY SKY/WX TMP DP RH WIND PRES REMARKS FRISCO CLEAR 54 44 69 VRB5 30.20R $$ NCZ095-097-098-100-101-210000- SOUTHERN COAST CITY SKY/WX TMP DP RH WIND PRES REMARKS BEAUFORT CLOUDY 58 44 60 E5 30.20R CEDAR ISLAND NOT AVBL JACKSONVILLE PTCLDY 60 48 64 S6 30.18R PINEY ISLAND PTCLDY N/A N/A N/A E9 30.20R WILMINGTON PTCLDY 61 48 62 E8 30.19R $$ NCZ011>013-027>030-043-044-078>080-089-090>093-098-210000- COASTAL PLAIN CITY SKY/WX TMP DP RH WIND PRES REMARKS AHOSKIE N/A 60 38 44 CALM 30.20R CLINTON MOCLDY 66 42 41 CALM 30.18S ELIZABETHTOWN MOCLDY 69 43 38 CALM 30.17S GOLDSBORO PTCLDY 66 38 36 CALM 30.17R GREENVILLE PTCLDY 63 37 39 CALM 30.20R HAVELOCK CLOUDY 59 43 55 E5 30.20R KENANSVILLE NOT AVBL KINSTON PTCLDY 63 37 39 CALM 30.19S NEW BERN CLOUDY 59 44 57 SE7 30.20R RICHLANDS MOCLDY 63 46 54 S8 30.19R ROCKY MOUNT PTCLDY 60 43 53 CALM 30.19R WASHINGTON PTCLDY 63 40 42 CALM 30.19S WHITEVILLE PTCLDY 70 44 39 CALM 30.16S $$ AMZ130-135-150-152-154-156-158-170-250-252-270-ANZ085-086-088-633-658-670-210000- MARINE OBSERVATIONS STATION/POSITION TIME TEMP WIND PRES WAVE SWELL AIR SEA DIR/SP/G HT/PER HT/PER (UTC) (F) (DEG/KT/KT) (MB) (FT/S) (FT/S) CHESAPEAKE LIGHT NOT AVBL 64 E VA BEACH 2250 52 54 20/ 10/ 12 1022.9 3/ 5 2/ 5 DUCK 2248 49 49 50/ 3/ 3 1023.0 2 E DUCK 2300 49 N/A 2/ 3 OREGON INLET 2242 48 52 360/ 4/ 5 1023.2 13E OREGON INLT NOT AVBL HATTERAS CG 2248 54 57 20/ 9/ 13 1022.4 DIAMOND BUOY 2250 58 65 20/ 17/ 21 1022.1 3/ 5 2/ 7 CAPE LOOKOUT 2300 57 30/ 10/ 11 1022.3 BEAUFORT LAB 2248 59 53 70/ 4/ 7 1021.7 30 SE NEW RVR IN 2208 62 70/ 14/ 17 1022.0 30 SE NEW RVR IN 2243 65 N/A 3/ 6 27 SE WRIGHTSVLE 2208 63 62 90/ 14/ 19 1020.8 5 SE WRIGHTSVLE 2208 58 56 100/ 8/ 12 1021.7 225 S CAPE HAT 2250 70 71 10/ 17/ 19 1019.4 5/ 7 2/ 9 41 SE CHARLESTON 2250 65 69 40/ 10/ 10 1021.0 2/ 4 2/ 7 $$

USA.gov is the U.S. government's official web portal to all federal, state and local government web resources and services.